Retour au catalogue

STARLINK-30783

ActifCommunicationsVLEO
NORAD 58130·PAYLOAD·🇺🇸 United States

Lancé Oct 22, 2023 depuis Cape Canaveral Space Force Station

Loading…

Prochains Passages (prochaines 24 heures)

TLE

FraisSource: CelesTrak SupGP

Époque: Sep 14, 2026, 21:55 UTC

1 58130C 23162N   26257.91368056 -.00051725  00000+0 -18737-2 0  2577
2 58130  42.9989 140.5785 0001325 267.8452 138.4911 15.27600506    15

Suivez STARLINK-30783 en temps réel avec AllMySat

Download on the App Store